AKST,Max TemperatureF,Mean TemperatureF,Min TemperatureF,Max Dew PointF,MeanDew PointF,Min DewpointF,Max Humidity, Mean Humidity, Min Humidity, Max Sea Level PressureIn, Mean Sea Level PressureIn, Min Sea Level PressureIn, Max VisibilityMiles, Mean VisibilityMiles, Min VisibilityMiles, Max Wind SpeedMPH, Mean Wind SpeedMPH, Max Gust SpeedMPH,PrecipitationIn, CloudCover, Events, WindDirDegrees
2012-2-1,39,36,32,34,32,30,100,86,70,29.73,29.58,29.42,10,7,2,18,11,28,0.60,8,Rain-Snow,191
2012-2-2,42,37,32,36,34,32,100,87,70,29.82,29.65,29.43,10,8,3,41,21,52,0.63,8,Rain-Snow,213
2012-2-3,45,39,33,38,34,30,100,81,61,30.09,29.67,29.33,10,8,2,48,16,70,0.27,8,Rain-Snow,205
2012-2-4,42,37,32,32,30,23,88,71,51,30.32,30.22,30.07,10,10,10,23,16,32,0.00,5,,190
2012-2-5,39,38,36,22,17,15,49,44,41,30.30,30.25,30.20,10,10,9,31,21,44,0.00,2,Snow,37
2012-2-6,37,35,33,25,20,15,67,54,41,30.27,30.19,30.07,10,10,3,26,18,36,0.00,6,Snow,42
2012-2-7,37,36,34,22,20,19,56,53,50,30.07,29.96,29.91,10,10,10,25,19,38,0.00,3,,36
2012-2-8,39,37,35,29,21,19,76,52,46,30.16,29.98,29.89,10,10,9,29,22,44,0.00,5,Snow,40
2012-2-9,43,39,35,31,25,20,85,58,45,30.18,29.92,29.73,10,10,10,30,11,45,0.00,5,Rain,34
2012-2-10,44,37,28,32,29,25,85,66,55,30.07,30.00,29.87,10,10,9,29,13,36,0.00,4,,203
2012-2-11,37,32,28,31,29,24,96,87,72,29.98,29.68,29.55,10,6,0,9,1,,0.24,7,Fog-Rain-Snow,52
2012-2-12,41,38,34,36,32,29,93,77,62,29.94,29.74,29.52,10,10,10,28,18,40,0.04,7,Rain,205
2012-2-13,41,38,33,30,29,27,79,70,60,29.96,29.92,29.89,10,10,10,30,23,41,0.00,5,,203
2012-2-14,39,34,28,32,29,26,92,79,67,30.10,29.96,29.87,10,10,10,31,9,39,0.00,6,,202
2012-2-15,37,34,32,33,30,27,89,81,70,30.10,29.91,29.78,10,10,6,21,6,30,0.03,8,Rain-Snow,178
2012-2-16,41,38,34,34,32,28,89,78,65,30.02,29.94,29.78,10,10,7,29,16,38,0.01,6,Snow,189
2012-2-17,35,32,30,35,32,28,100,95,89,29.95,29.89,29.83,10,9,2,5,0,,0.02,8,Rain-Snow,30
2012-2-18,32,28,24,30,28,22,100,93,82,29.85,29.80,29.76,10,4,1,5,1,,0.08,7,Snow,39
2012-2-19,36,32,28,30,27,24,100,87,64,29.76,29.73,29.66,10,8,2,6,1,,0.02,7,Snow,39
2012-2-20,39,34,30,34,28,20,96,85,61,29.64,29.24,29.03,10,6,0,39,4,54,0.24,8,Fog-Snow,248
2012-2-21,39,38,37,33,32,31,83,79,73,29.46,29.29,29.09,10,10,9,39,29,47,0.00,6,Rain-Snow,205
2012-2-22,37,34,30,32,30,27,89,82,76,30.03,29.79,29.49,10,10,9,23,9,28,0.00,5,Rain-Snow,197
2012-2-23,37,34,30,31,30,28,93,82,73,30.17,30.13,30.04,10,10,5,24,15,31,0.01,8,Snow,204
2012-2-24,35,32,30,28,16,9,93,53,38,30.13,30.06,30.01,10,10,10,23,7,31,0.00,6,,29
2012-2-25,30,24,16,9,3,1,59,42,33,30.41,30.29,30.11,10,10,10,22,13,29,0.00,0,,41
2012-2-26,36,26,15,29,22,5,93,79,62,30.42,30.12,29.78,10,4,1,38,15,45,0.00,7,Snow,202
2012-2-27,36,34,32,32,31,28,100,89,73,29.73,29.46,29.37,10,5,1,39,20,46,0.10,7,Snow,178
2012-2-28,37,32,27,31,28,24,100,89,62,29.58,29.48,29.41,10,7,1,8,4,,0.03,8,Snow,42
2012-2-29,37,32,26,25,19,17,92,63,46,29.78,29.65,29.58,10,10,10,18,4,29,0.00,2,,40